Hourly Data Report for September 22, 2003

SHERBROOKE A
QUEBEC

45°26'00.000" N
71°41'00.000" W
241.40 m
7028124
71610
YSC

Download Data

Hourly Data (September 2003)
Hourly Data Report for September 22, 2003
TIME
LST
Temp Definition
°C
Dew Point Definition
°C
Rel Hum Definition
%
Precip. Amount Definition
mm

Wind Dir Definition
10's deg

Wind Spd Definition
km/h
Visibility Definition
km
Stn Press Definition
kPa
Hmdx Definition


Wind Chill Definition


Weather Definition


00:00 12.6 11.8 95     0 15.0 99.80      
01:00 12.8 12.0 95   7 4 15.0 99.76      
02:00 12.7 11.7 94     0 15.0 99.75      
03:00 12.8 11.7 93   9 4 15.0 99.70      
04:00 12.7 11.5 92   7 6 15.0 99.71      
05:00 12.1 11.3 95   8 4 15.0 99.69      
06:00 12.1 11.2 94   8 6 15.0 99.71      
07:00 12.3 10.4 88   10 7 24.1 99.69     Mostly Cloudy
08:00 13.9 10.0 77   9 7 24.1 99.64     Mainly Clear
09:00 17.2 10.7 66     0 24.1 99.64     Mainly Clear
10:00 19.5 10.2 55   15 13 24.1 99.54     Mainly Clear
11:00 20.8 10.1 50   18 11 24.1 99.46     Mainly Clear
12:00 21.9 11.7 52   16 9 24.1 99.41     Mainly Clear
13:00 21.3 10.5 50   17 17 24.1 99.33     Mainly Clear
14:00 21.8 11.1 51   18 7 24.1 99.22     Mostly Cloudy
15:00 21.9 11.3 51   16 13 24.1 99.19     Mostly Cloudy
16:00 20.2 11.3 57   13 15 24.1 99.13     Mostly Cloudy
17:00 18.4 11.3 63   12 13 15.0 99.08      
18:00 16.5 10.6 68   12 13 15.0 99.07      
19:00 15.8 10.6 71   13 15 15.0 99.05      
20:00 15.4 10.5 73   13 15 15.0 99.01      
21:00 15.1 10.5 74   13 13 15.0 98.93      
22:00 14.8 10.4 75   15 7 15.0 98.89      
23:00 15.0 10.1 72   14 15 15.0 98.79      

Notes on Data Quality.

Legend

  • E = Estimated
  • M = Missing
  • NA = Not Available*
  • [empty] = Indicates an unobserved value
Date modified: